[[{"header":{"parameterUnit":"m.s-1","parameterCategory":1,"la1":30.2991,"la2":30.254,"lo1":-89.0895,"lo2":-89.0444,"dy":0.0017,"dx":0.0017,"nx":28,"ny":28,"refTime":"2025-06-01T09:00:00:Z","depth":0,"parameterNumber":2,"parameterNumberName":"U-component_of_WINDS"},"data":[0,0,0,0,0,0,0,0,0,0,0,0,0,0,0,0,0,0,0,0,0,0,0,0,0,0,0,0,0,0,0,0,0,0,0,0,0,0,0,0,0,0,0,0,0,0,0,0,0,0,0,0,0,0,0,0,0,0,-1.7776,-1.7775,0,-1.7696,-1.7695,-1.7694,-1.7597,-1.7596,-1.7594,-1.7593,-1.751,-1.751,-1.7509,0,0,0,0,0,0,0,0,0,0,0,0,0,-1.7847,-1.7846,-1.7776,-1.7775,-1.7774,-1.7696,-1.7695,-1.7694,-1.7597,-1.7595,-1.7594,-1.7592,-1.7511,-1.751,-1.7509,0,0,0,0,0,0,0,0,0,0,0,0,0,-1.7797,-1.7846,-1.7776,-1.7717,-1.771,-1.7696,-1.7695,-1.7694,-1.7598,-1.7595,-1.7593,-1.7591,-1.7511,-1.751,-1.7509,-1.7547,0,0,-1.7505,-1.7505,0,0,0,0,0,0,0,0,-1.78,-1.7794,-1.7726,-1.7721,-1.7714,-1.7654,-1.769,-1.7644,-1.7598,-1.7641,-1.7593,-1.759,-1.756,-1.7555,-1.7545,-1.7543,-1.7539,-1.7505,-1.7504,-1.7504,-1.7503,0,0,0,0,0,0,0,-1.7803,-1.7797,-1.7744,-1.7726,-1.7718,-1.7694,-1.7685,-1.7681,-1.7614,-1.7637,-1.7629,-1.7621,-1.7556,-1.7546,-1.7542,-1.7538,-1.7505,-1.7504,-1.7503,-1.7503,-1.7565,-1.7567,0,0,0,0,0,0,-1.7816,-1.78,-1.7747,-1.7742,-1.7752,-1.7695,-1.7684,-1.7676,-1.7614,-1.7602,-1.7623,-1.7617,-1.7549,-1.7543,-1.7539,-1.7579,-1.7504,-1.7503,-1.7502,-1.7562,-1.7565,-1.7568,0,0,0,0,0,0,-1.7817,-1.7812,-1.775,-1.7769,-1.776,-1.7696,-1.7687,-1.7675,-1.7665,-1.7604,-1.7591,-1.7625,-1.7547,-1.754,-1.7546,-1.7575,-1.7502,-1.7501,-1.756,-1.7563,-1.7566,-1.7661,0,0,0,0,0,0,-1.782,-1.7813,-1.7826,-1.777,-1.7759,-1.7758,-1.7689,-1.7675,-1.7663,-1.7654,-1.7602,-1.7591,-1.7545,-1.7548,-1.7545,-1.7572,-1.75,-1.7557,-1.7561,-1.7565,-1.7655,-1.7668,-1.7678,0,0,0,0,0,-1.7823,-1.7856,-1.7828,-1.7822,-1.7774,-1.776,-1.7754,-1.77,-1.7666,-1.7679,-1.764,-1.7593,-1.7573,-1.7549,-1.7545,-1.7572,-1.7554,-1.756,-1.7565,-1.765,-1.7665,-1.7678,0,0,0,0,0,0,-1.7917,-1.7847,-1.7815,-1.7831,-1.7803,-1.7744,-1.7759,-1.7717,-1.7698,-1.769,-1.7624,-1.7613,-1.7627,-1.76,-1.7575,-1.7607,-1.7557,-1.7562,-1.7623,-1.7637,-1.7648,-1.7654,-1.7499,0,0,0,0,0,-1.794,-1.7934,-1.7873,-1.7894,-1.7881,-1.7823,-1.7815,-1.7776,-1.7743,-1.773,-1.7691,-1.7662,-1.7649,-1.7642,-1.7626,-1.7651,-1.7639,-1.7668,-1.768,-1.769,-1.7694,-1.7706,-1.7719,-1.7585,-1.7585,-1.7585,0,0,-1.7986,-1.7948,-1.7948,-1.7912,-1.7885,-1.788,-1.7813,-1.7811,-1.7807,-1.773,-1.7732,-1.7704,-1.7666,-1.7682,-1.7687,-1.766,-1.7729,-1.7697,-1.7705,-1.7704,-1.7713,-1.7726,-1.7737,-1.7589,-1.7588,-1.7587,0,0,-1.8068,-1.8039,-1.8052,-1.8027,-1.7988,-1.7949,-1.7953,-1.7901,-1.7879,-1.788,-1.7823,-1.7818,-1.7796,-1.7772,-1.7757,-1.7834,-1.7789,-1.7831,-1.789,-1.7903,-1.7913,-1.7922,-1.7949,-1.796,-1.7835,-1.7836,-1.7836,0,-1.8131,-1.8122,-1.8065,-1.8067,-1.8053,-1.7984,-1.7997,-1.7976,-1.7933,-1.7925,-1.7896,-1.7869,-1.7839,-1.7849,-1.7868,-1.7858,-1.786,-1.7835,-1.7916,-1.7925,-1.7932,-1.7957,-1.7968,-1.7841,-1.784,-1.784,-1.7839,0,-1.8201,-1.8196,-1.8212,-1.8173,-1.8161,-1.8169,-1.8114,-1.8109,-1.8072,-1.8037,-1.804,-1.8002,-1.7978,-1.7977,-1.7941,-1.7982,-1.7967,-1.7928,-1.7877,-1.7951,-1.7974,-1.7983,-1.7848,-1.7846,-1.7845,-1.7844,0,0,-1.8339,-1.827,-1.8276,-1.8258,-1.821,-1.8205,-1.8211,-1.8188,-1.8185,-1.8159,-1.8162,-1.8147,-1.8111,-1.8094,-1.8055,-1.8066,-1.8129,-1.8026,-1.8024,-1.8046,-1.8172,-1.8201,-1.8213,-1.81,-1.8102,-1.8103,-1.8175,0,-1.8412,-1.8417,-1.8366,-1.8385,-1.838,-1.8315,-1.832,-1.8292,-1.826,-1.8251,-1.8215,-1.8205,-1.8159,-1.8149,-1.8157,-1.812,-1.8153,-1.8114,-1.8102,-1.8102,-1.8113,-1.8225,-1.8255,-1.8325,-1.8184,-1.8185,-1.8186,0,-1.8497,-1.8477,-1.8495,-1.8447,-1.8443,-1.8449,-1.8424,-1.8416,-1.8384,-1.8359,-1.8342,-1.8297,-1.83,-1.8252,-1.8255,-1.8229,-1.8222,-1.8203,-1.8205,-1.8201,-1.8148,-1.8223,-1.8346,-1.8357,-1.82,-1.8199,-1.8198,0,-1.8596,-1.8572,-1.858,-1.8567,-1.8512,-1.8517,-1.8494,-1.8459,-1.8449,-1.8428,-1.8421,-1.8401,-1.8389,-1.8375,-1.8326,-1.8296,-1.8335,-1.8283,-1.8315,-1.8316,-1.8325,-1.8325,-1.8448,-1.8322,-1.8322,-1.8322,-1.8322,0,-1.8682,-1.8696,-1.8624,-1.8629,-1.8643,-1.8585,-1.8601,-1.8572,-1.8541,-1.854,-1.8483,-1.8483,-1.8419,-1.8412,-1.8374,-1.8383,-1.8378,-1.8359,-1.8348,-1.8363,-1.8366,-1.8357,-1.835,-1.8324,-1.8324,-1.8323,-1.8323,0,-1.8794,-1.8746,-1.875,-1.8698,-1.8686,-1.8698,-1.8654,-1.8656,-1.8622,-1.8621,-1.8617,-1.8563,-1.8551,-1.8502,-1.8479,-1.8454,-1.8475,-1.8455,-1.8486,-1.8479,-1.8514,-1.8511,-1.8634,-1.8647,-1.8515,-1.8516,-1.8517,0,-1.8851,-1.8861,-1.881,-1.8805,-1.8785,-1.8778,-1.8767,-1.8712,-1.8703,-1.8668,-1.8675,-1.8659,-1.8644,-1.863,-1.8588,-1.8571,-1.8549,-1.8594,-1.8546,-1.8562,-1.855,-1.855,-1.855,-1.8604,-1.8605,-1.8607,-1.8608,0,-1.8959,-1.8936,-1.8923,-1.8902,-1.8892,-1.8873,-1.885,-1.885,-1.8788,-1.8782,-1.877,-1.8758,-1.8736,-1.8721,-1.8697,-1.8674,-1.8631,-1.8624,-1.863,-1.8645,-1.8663,-1.8653,-1.8513,-1.8621,-1.8619,-1.8618,-1.8618,-1.8617,-1.9045,-1.9051,-1.9016,-1.9004,-1.8982,-1.8963,-1.8963,-1.8929,-1.8918,-1.8895,-1.8863,-1.8856,-1.8824,-1.8787,-1.8768,-1.8762,-1.8737,-1.8747,-1.8749,-1.8752,-1.876,-1.8665,-1.8757,-1.8757,-1.8756,-1.8756,-1.8756,0,-1.915,-1.9125,-1.9114,-1.9085,-1.9076,-1.9037,-1.9011,-1.9006,-1.9,-1.8974,-1.8961,-1.8948,-1.8934,-1.8892,-1.8875,-1.8878,-1.8858,-1.8875,-1.8874,-1.8869,-1.8782,-1.8778,-1.8891,-1.8891,-1.8891,-1.8891,-1.8891,-1.8891,-1.9203,-1.921,-1.9183,-1.9179,-1.9154,-1.9146,-1.9135,-1.9117,-1.9096,-1.9084,-1.9073,-1.9046,-1.9014,-1.8993,-1.8979,-1.8967,-1.8963,-1.8987,-1.8969,-1.8888,-1.8875,-1.8863,-1.8859,-1.8987,-1.8987,-1.9056,-1.9056,-1.9057]},{"header":{"parameterUnit":"m.s-1","parameterCategory":1,"la1":30.2991,"la2":30.254,"lo1":-89.0895,"lo2":-89.0444,"dy":0.0017,"dx":0.0017,"nx":28,"ny":28,"refTime":"2025-06-01T09:00:00:Z","depth":0,"parameterNumber":3,"parameterNumberName":"V-component_of_WINDS"},"data":[0,0,0,0,0,0,0,0,0,0,0,0,0,0,0,0,0,0,0,0,0,0,0,0,0,0,0,0,0,0,0,0,0,0,0,0,0,0,0,0,0,0,0,0,0,0,0,0,0,0,0,0,0,0,0,0,0,0,2.6577,2.6577,0,2.6542,2.6541,2.6541,2.6581,2.6582,2.6584,2.6585,2.6544,2.6541,2.6539,0,0,0,0,0,0,0,0,0,0,0,0,0,2.6675,2.6673,2.6577,2.6577,2.6576,2.6542,2.6541,2.6541,2.6581,2.6582,2.6584,2.6586,2.6545,2.6542,2.6539,0,0,0,0,0,0,0,0,0,0,0,0,0,2.6635,2.6672,2.6577,2.6592,2.6593,2.6542,2.6541,2.6541,2.658,2.6582,2.6585,2.6587,2.6546,2.6542,2.6538,2.647,0,0,2.6527,2.6525,0,0,0,0,0,0,0,0,2.6637,2.6631,2.659,2.6591,2.6592,2.6568,2.6561,2.6517,2.658,2.6585,2.6585,2.6588,2.655,2.6546,2.6534,2.6468,2.6466,2.6526,2.6524,2.6523,2.6522,0,0,0,0,0,0,0,2.664,2.6633,2.6563,2.659,2.6591,2.6599,2.6596,2.6553,2.6555,2.6585,2.6587,2.6583,2.6551,2.6538,2.6533,2.6465,2.6527,2.6523,2.6521,2.6519,2.6342,2.6339,0,0,0,0,0,0,2.6642,2.6635,2.6564,2.6562,2.6621,2.6596,2.6592,2.6573,2.6555,2.6555,2.6581,2.6585,2.6543,2.6538,2.6532,2.6451,2.6523,2.6519,2.6517,2.6344,2.6341,2.6338,0,0,0,0,0,0,2.6644,2.6635,2.6566,2.6599,2.6591,2.6591,2.657,2.6571,2.6559,2.6553,2.6553,2.6568,2.6545,2.6537,2.6485,2.645,2.6517,2.6514,2.6347,2.6343,2.634,2.6287,0,0,0,0,0,0,2.6646,2.6635,2.661,2.6599,2.6589,2.652,2.6568,2.6569,2.6553,2.6557,2.654,2.654,2.6546,2.6491,2.6482,2.6446,2.6511,2.635,2.6345,2.6341,2.6292,2.6282,2.6274,0,0,0,0,0,2.665,2.6595,2.6609,2.66,2.6558,2.6518,2.6513,2.6523,2.655,2.6524,2.652,2.654,2.6456,2.6485,2.6475,2.6438,2.6352,2.6347,2.6341,2.6296,2.6284,2.6274,0,0,0,0,0,0,2.66,2.6594,2.6609,2.6549,2.6534,2.6525,2.6492,2.6509,2.6485,2.649,2.6502,2.6498,2.6443,2.6435,2.6468,2.6371,2.6408,2.64,2.6378,2.6366,2.6357,2.636,2.6508,0,0,0,0,0,2.6583,2.6553,2.6549,2.6496,2.6489,2.6492,2.6475,2.6484,2.6468,2.6461,2.6454,2.6437,2.6407,2.6386,2.6358,2.6292,2.6289,2.6261,2.6252,2.6245,2.6237,2.6203,2.6191,2.632,2.632,2.632,0,0,2.6546,2.6539,2.6519,2.6487,2.6476,2.6443,2.6486,2.6449,2.6425,2.6455,2.6406,2.6401,2.6382,2.6323,2.6297,2.6315,2.6201,2.6238,2.6232,2.6229,2.6196,2.6183,2.6172,2.6316,2.6317,2.6318,0,0,2.6462,2.6454,2.641,2.6399,2.6384,2.6387,2.6376,2.6365,2.6363,2.6314,2.6337,2.6307,2.6255,2.6241,2.6227,2.614,2.6157,2.613,2.6082,2.6047,2.6037,2.6028,2.5997,2.5986,2.6123,2.6123,2.6123,0,2.6417,2.6371,2.6385,2.6347,2.6332,2.6361,2.6316,2.6305,2.6279,2.6268,2.629,2.6226,2.6215,2.6153,2.6132,2.612,2.6108,2.6131,2.6038,2.6029,2.6021,2.5991,2.5979,2.612,2.612,2.612,2.6121,0,2.6316,2.6284,2.625,2.6228,2.6209,2.6168,2.6175,2.6155,2.6166,2.6166,2.6117,2.6105,2.6076,2.6062,2.6071,2.6002,2.6014,2.6037,2.6074,2.6005,2.5977,2.5966,2.6115,2.6116,2.6117,2.6118,0,0,2.6198,2.6187,2.6174,2.6165,2.615,2.6125,2.6085,2.6058,2.604,2.6022,2.5989,2.5945,2.5966,2.595,2.5959,2.5929,2.5861,2.5955,2.5955,2.5938,2.5783,2.5766,2.5753,2.5873,2.5871,2.5869,2.5785,0,2.6114,2.6047,2.606,2.5994,2.5964,2.5992,2.5957,2.5944,2.5944,2.5917,2.5916,2.5885,2.5915,2.5906,2.5878,2.5875,2.583,2.5881,2.5841,2.5839,2.5844,2.5738,2.572,2.5641,2.5774,2.5772,2.5771,0,2.6006,2.5987,2.5919,2.5911,2.5899,2.5868,2.5845,2.5819,2.5805,2.5807,2.579,2.5805,2.5765,2.5804,2.5748,2.5783,2.5767,2.5764,2.5761,2.5756,2.58,2.5731,2.5616,2.5603,2.5754,2.5756,2.5757,0,2.5927,2.5884,2.5838,2.5829,2.5818,2.5796,2.579,2.5779,2.5762,2.5742,2.5731,2.5705,2.5691,2.567,2.5677,2.5705,2.562,2.566,2.5619,2.5619,2.5599,2.56,2.5479,2.559,2.559,2.559,2.559,0,2.5831,2.5788,2.5802,2.5774,2.5727,2.5741,2.5694,2.5691,2.5681,2.5652,2.5673,2.5645,2.5657,2.5629,2.5634,2.5587,2.558,2.558,2.5582,2.5578,2.5578,2.5567,2.5572,2.5587,2.5588,2.5588,2.5589,0,2.5734,2.5742,2.5693,2.5688,2.5686,2.5651,2.5646,2.5619,2.5622,2.5585,2.5577,2.5579,2.5548,2.5554,2.5518,2.5522,2.5463,2.5472,2.5468,2.547,2.5429,2.5433,2.5297,2.5279,2.5402,2.5401,2.54,0,2.5672,2.564,2.5632,2.5615,2.5609,2.558,2.5565,2.5578,2.556,2.5543,2.5517,2.5489,2.5466,2.5415,2.5413,2.5386,2.5394,2.5348,2.539,2.5387,2.5393,2.5394,2.5391,2.5339,2.5338,2.5337,2.5336,0,2.5561,2.5567,2.5544,2.5522,2.5503,2.5486,2.5471,2.5456,2.5468,2.5447,2.5416,2.5399,2.5365,2.5335,2.5311,2.5304,2.5321,2.5323,2.5312,2.5307,2.5307,2.5306,2.5445,2.5326,2.5327,2.5327,2.5328,2.5328,2.5479,2.5452,2.5443,2.5417,2.5408,2.5394,2.5369,2.5369,2.5344,2.5318,2.5328,2.5293,2.528,2.5249,2.524,2.5212,2.5229,2.5213,2.5209,2.5205,2.52,2.5312,2.5207,2.5208,2.5208,2.5208,2.5208,0,2.5369,2.5365,2.5341,2.5321,2.53,2.5321,2.5306,2.5287,2.5257,2.5244,2.5223,2.5188,2.516,2.5157,2.5131,2.5109,2.5116,2.5101,2.5103,2.5101,2.5186,2.5198,2.5096,2.5096,2.5096,2.5096,2.5096,2.5096,2.5309,2.5265,2.5271,2.5222,2.5218,2.5186,2.5176,2.5163,2.5153,2.5114,2.5092,2.5091,2.5082,2.5055,2.5031,2.5031,2.5019,2.5001,2.5004,2.5083,2.5095,2.5105,2.5117,2.4999,2.4999,2.4921,2.492,2.492]}]]